Wind_Speed
19 19 20 19 19 19 19 19 19 19 20 21 21 21 21 21 23 23 24 24 25 25 26 26 26 26 26 25 25 25 24 24 23 23 23 24 24 24 24 24 24 25 24
19 19 18 18 18 19 20 20 19 19 20 20 21 21 21 21 23 24 24 25 26 27 27 27 27 27 27 26 26 26 26 25 25 25 24 25 26 26 26 26 26 25 25
20 19 18 17 18 18 19 19 20 20 20 21 21 21 21 22 22 23 24 24 25 26 26 27 27 27 27 27 27 28 28 27 26 26 25 25 26 27 26 26 26 26 25
20 19 18 18 19 20 20 20 20 20 20 21 21 21 22 23 23 23 23 23 23 24 25 26 27 28 28 28 28 28 28 28 28 27 26 26 26 27 27 27 26 26 26
18 18 19 19 19 20 20 20 20 20 20 20 20 21 21 22 22 22 22 22 22 23 25 26 27 28 28 28 27 28 28 29 28 28 27 27 27 27 27 27 27 27 27
16 17 18 18 19 19 20 20 19 19 20 20 20 21 21 21 21 21 22 22 23 23 24 25 26 27 28 29 28 28 28 28 29 29 28 28 27 27 28 28 28 28 28
15 16 17 17 18 19 19 19 19 19 19 19 20 21 21 21 21 21 21 22 23 23 24 24 25 26 27 28 29 28 28 29 30 30 30 30 29 29 29 29 29 29 29
14 16 18 18 18 19 19 18 18 19 20 20 20 21 21 21 22 22 22 22 23 24 24 25 25 26 27 28 29 29 29 30 30 31 31 31 30 29 29 29 30 30 30
14 15 17 16 17 18 17 17 18 19 19 20 20 21 21 21 21 22 23 23 24 24 25 25 25 26 26 27 28 29 30 31 31 32 31 31 31 31 30 29 29 30 30
14 15 15 16 16 17 17 17 18 18 19 19 19 19 20 21 22 22 22 24 25 26 26 26 26 26 26 27 28 29 29 29 30 31 31 31 32 31 32 31 31 32 33
14 15 15 14 14 15 16 17 17 18 19 19 19 20 20 21 22 23 23 24 25 26 26 27 27 27 27 27 27 28 29 30 30 31 32 31 32 32 32 32 32 32 33
14 14 14 13 13 14 15 16 18 19 20 20 20 21 22 22 23 23 24 24 24 25 26 26 26 27 27 27 28 27 28 30 31 31 32 32 33 33 33 33 33 33 33
13 13 12 13 13 14 15 16 18 19 19 20 20 21 22 23 24 24 24 24 24 25 25 25 25 25 27 27 27 28 29 30 31 31 32 33 34 34 33 34 34 34 34
13 13 13 13 14 14 15 16 18 18 19 20 20 21 22 22 23 23 24 24 24 24 25 25 25 25 26 27 28 29 30 30 31 31 32 33 34 34 34 34 34 34 34
14 14 13 14 15 16 17 17 18 19 19 19 20 20 21 21 22 23 23 24 24 24 24 24 24 24 25 26 28 29 29 29 30 31 31 32 33 34 34 35 34 35 35
14 14 14 15 16 17 18 19 19 20 20 20 20 21 21 21 22 22 23 23 23 23 23 23 24 24 25 26 27 28 29 28 29 29 30 32 32 33 33 33 33 34 35
15 14 16 17 18 18 19 20 20 20 20 21 22 22 22 22 22 22 23 23 23 23 24 24 24 25 26 26 26 27 28 28 28 29 30 31 31 32 33 33 33 35 35
15 15 16 17 18 19 20 20 20 20 20 21 21 21 22 22 22 22 22 23 23 24 24 25 25 26 26 26 26 27 27 27 28 29 30 30 30 31 33 33 34 35 36
16 16 16 17 18 18 19 20 20 20 21 21 22 22 22 22 21 21 22 22 22 23 24 24 24 25 25 26 26 26 26 26 27 28 29 29 30 31 32 33 34 35 36
17 17 17 17 18 18 19 19 20 20 20 20 21 21 21 21 21 22 22 22 22 22 23 23 23 23 23 24 25 25 25 25 26 27 28 28 30 31 32 34 34 35 36
17 17 18 18 18 19 19 20 21 21 20 20 20 20 20 21 21 21 21 21 21 21 21 22 21 21 21 22 23 23 24 24 24 25 26 27 29 31 32 33 34 35 36
18 18 18 19 19 19 20 20 21 20 20 20 21 21 21 21 21 21 21 21 20 20 19 20 19 19 19 19 19 20 20 21 22 23 24 25 27 28 30 31 32 34 35
17 18 19 19 19 19 19 20 20 21 20 20 21 21 21 21 21 20 20 20 20 18 18 17 17 17 17 17 17 18 19 20 20 21 22 23 24 25 27 28 29 31 32
18 18 19 18 19 19 19 20 20 20 20 20 20 20 20 19 19 19 18 18 18 17 17 16 16 16 16 17 17 18 20 20 20 21 22 22 23 24 26 27 28 29 31
18 19 19 19 19 19 19 19 19 19 19 20 20 20 19 19 19 18 17 17 16 16 15 16 15 16 16 16 17 18 19 19 19 21 22 23 22 23 24 26 27 28 29
18 19 19 19 19 19 19 19 19 19 19 19 20 19 19 18 18 18 17 16 15 15 15 15 15 15 16 16 16 17 18 18 18 18 20 21 21 23 23 25 27 27 28
Wind_Direction
277 275 271 269 268 269 271 273 268 268 269 270 270 270 269 269 268 270 268 265 265 268 266 262 259 259 258 257 256 255 255 253 253 252 250 248 246 246 247 248 250 249 251
277 275 271 272 269 267 269 271 271 271 271 271 271 270 271 271 271 271 271 268 267 266 265 263 259 258 257 256 254 254 253 254 253 255 253 250 248 246 247 248 250 252 251
279 274 272 273 273 273 271 271 272 272 273 272 272 272 273 273 272 271 270 270 268 265 262 260 259 257 256 255 253 253 252 253 253 255 255 253 250 248 248 248 249 249 249
278 275 273 274 274 273 273 274 274 273 273 272 272 273 274 274 273 271 270 270 268 266 264 261 259 257 257 256 254 254 253 253 254 255 255 255 252 249 248 247 248 248 248
278 276 275 274 274 274 275 275 273 273 274 272 273 275 275 274 272 272 270 268 268 267 267 263 260 259 258 257 256 255 254 253 254 254 253 253 252 250 248 247 246 247 247
278 276 276 275 275 275 275 276 275 274 273 273 274 275 274 273 272 270 268 268 267 268 269 266 263 261 260 258 256 256 255 253 252 253 252 252 251 250 249 248 246 246 247
278 274 276 277 277 279 278 277 277 276 276 276 275 275 275 274 273 271 269 268 266 266 269 269 265 263 262 259 257 257 256 254 253 252 251 252 250 249 249 248 245 246 247
282 277 279 280 279 279 278 277 278 278 278 279 278 276 275 273 271 270 270 267 265 266 266 267 264 262 261 259 258 257 256 255 254 253 252 252 250 249 250 248 246 245 247
291 287 288 285 281 280 278 279 281 280 280 281 281 279 277 277 274 271 270 268 267 268 267 266 265 263 262 261 258 256 256 254 254 255 254 253 251 250 249 249 247 247 247
293 289 288 286 283 282 283 283 283 282 282 284 285 283 283 281 278 275 273 271 270 269 267 268 265 264 264 262 260 256 254 254 253 255 255 253 252 251 249 250 249 248 247
293 290 288 285 284 285 288 287 288 287 286 287 286 285 286 284 283 280 276 274 272 271 271 269 267 264 263 260 258 256 253 254 255 255 254 254 252 252 251 249 249 249 248
303 298 292 288 287 287 290 291 291 292 291 290 288 287 287 286 285 282 279 277 275 274 273 270 269 266 263 260 257 256 256 255 255 255 254 253 252 252 251 250 249 249 248
303 297 296 295 294 294 295 297 298 297 295 294 293 292 289 288 285 282 281 279 277 277 274 270 268 266 264 261 259 258 256 255 255 254 254 252 252 252 252 250 248 249 248
305 300 299 300 299 301 301 302 303 302 300 298 297 294 292 289 286 283 282 280 279 278 276 272 269 268 265 262 260 259 257 256 256 255 254 252 251 252 251 250 249 248 248
306 302 302 302 301 301 301 303 304 305 306 303 301 298 295 292 289 287 284 283 282 278 275 272 270 269 268 264 261 260 258 257 257 255 254 254 252 252 250 250 250 249 249
307 301 301 305 305 305 304 304 305 305 305 305 304 303 301 297 292 290 288 286 284 280 275 272 270 270 268 266 263 261 259 259 258 256 255 254 253 252 251 251 250 249 248
306 302 301 302 305 306 304 302 304 305 306 305 304 303 303 300 296 292 287 285 283 280 276 274 272 271 268 265 263 262 260 260 258 257 255 253 252 251 251 252 251 249 248
308 305 304 304 305 306 307 307 307 306 307 307 304 303 303 301 297 294 291 286 283 281 279 276 273 272 270 265 262 261 261 260 259 256 255 254 253 252 251 251 251 250 249
307 306 307 307 308 308 308 309 310 309 308 307 306 305 303 301 299 297 295 291 287 284 281 279 276 275 272 267 264 262 261 260 259 256 254 253 253 253 252 252 252 251 250
306 306 307 309 309 308 309 310 311 309 309 309 310 309 308 306 303 301 298 295 292 288 286 284 281 278 274 269 266 264 263 262 261 259 256 254 253 253 253 254 254 253 252
307 306 307 308 308 309 310 311 312 311 308 308 309 310 310 310 307 303 301 299 296 292 288 286 284 280 276 272 268 266 265 264 264 263 260 257 256 255 256 257 256 255 253
307 307 308 309 310 311 311 311 311 312 311 309 308 307 307 309 308 306 304 302 300 296 290 288 284 282 278 275 272 270 268 268 267 266 263 260 258 256 255 257 257 257 257
312 311 310 311 312 313 313 312 312 313 313 312 310 309 308 308 308 307 307 305 302 298 296 293 288 285 281 278 277 273 270 270 270 268 266 262 259 258 257 257 259 259 258
315 315 315 314 314 314 315 315 315 316 317 318 317 314 314 313 313 311 309 307 305 300 297 295 291 289 283 279 279 278 277 276 274 271 269 266 262 262 261 261 260 261 259
316 315 315 315 315 316 316 315 317 317 317 318 318 319 317 316 315 315 314 312 309 306 301 298 296 293 289 285 285 284 282 280 276 274 272 270 265 265 265 265 265 263 261
317 317 316 316 316 316 317 318 319 319 318 319 320 319 319 317 315 315 314 314 313 310 307 305 302 299 295 290 290 291 288 285 283 280 277 274 272 269 267 268 267 266 264
Height
5836 5835 5834 5833 5833 5832 5832 5832 5831 5830 5830 5829 5829 5829 5828 5827 5827 5827 5827 5827 5827 5827 5827 5828 5828 5828 5829 5829 5830 5830 5831 5832 5833 5834 5835 5837 5838 5840 5842 5844 5845 5847 5849
5830 5829 5828 5828 5827 5827 5827 5826 5825 5825 5824 5824 5823 5823 5822 5821 5821 5821 5821 5821 5821 5821 5821 5821 5821 5821 5822 5823 5824 5824 5825 5826 5827 5829 5830 5831 5833 5834 5836 5838 5840 5842 5844
5824 5824 5823 5823 5822 5822 5821 5820 5820 5819 5819 5818 5817 5817 5816 5815 5815 5815 5814 5814 5814 5814 5813 5814 5814 5814 5815 5816 5817 5818 5819 5820 5821 5823 5824 5825 5827 5829 5830 5832 5834 5836 5838
5818 5818 5818 5817 5817 5816 5815 5814 5814 5813 5813 5812 5811 5810 5809 5809 5808 5808 5808 5808 5807 5807 5807 5807 5807 5808 5808 5809 5810 5811 5812 5813 5815 5816 5818 5819 5821 5822 5824 5826 5828 5830 5833
5812 5812 5812 5812 5811 5811 5810 5809 5808 5807 5807 5806 5805 5804 5803 5802 5801 5801 5801 5801 5801 5801 5801 5800 5800 5801 5801 5802 5803 5804 5805 5807 5808 5809 5811 5813 5814 5816 5818 5820 5822 5824 5827
5807 5807 5807 5806 5805 5805 5804 5803 5802 5801 5801 5800 5799 5798 5797 5796 5795 5794 5794 5795 5795 5794 5794 5794 5794 5794 5794 5795 5796 5797 5798 5799 5801 5803 5804 5806 5807 5809 5811 5813 5815 5818 5820
5802 5802 5801 5800 5800 5799 5798 5797 5797 5796 5795 5794 5793 5792 5791 5790 5789 5788 5788 5788 5788 5787 5787 5787 5786 5787 5787 5788 5789 5790 5791 5792 5793 5795 5797 5799 5800 5802 5804 5806 5808 5810 5813
5797 5797 5796 5795 5795 5794 5793 5792 5791 5790 5789 5788 5787 5786 5785 5785 5783 5782 5781 5781 5781 5780 5780 5779 5779 5779 5780 5780 5781 5782 5783 5784 5786 5787 5789 5791 5793 5795 5796 5798 5800 5803 5806
5794 5792 5791 5790 5789 5789 5788 5787 5786 5785 5784 5782 5781 5780 5778 5778 5777 5776 5775 5774 5774 5773 5772 5772 5772 5772 5772 5773 5774 5775 5776 5777 5778 5780 5781 5783 5786 5787 5789 5791 5793 5795 5798
5790 5789 5788 5786 5785 5784 5783 5782 5781 5780 5778 5776 5774 5773 5772 5771 5770 5769 5769 5768 5767 5766 5765 5765 5764 5764 5765 5765 5766 5767 5768 5769 5771 5772 5774 5775 5778 5780 5782 5784 5786 5788 5790
5786 5785 5783 5782 5781 5780 5779 5777 5776 5774 5773 5771 5769 5767 5766 5764 5763 5762 5762 5761 5760 5759 5758 5757 5757 5757 5757 5757 5758 5759 5760 5761 5763 5764 5766 5767 5769 5771 5774 5776 5778 5780 5782
5782 5780 5779 5778 5777 5776 5775 5773 5771 5769 5767 5765 5763 5762 5760 5758 5757 5755 5754 5754 5753 5752 5751 5750 5750 5749 5749 5750 5751 5752 5752 5754 5755 5756 5758 5759 5761 5763 5765 5767 5769 5771 5774
5779 5777 5775 5774 5773 5772 5770 5769 5767 5764 5762 5760 5758 5755 5753 5752 5750 5748 5748 5747 5746 5745 5743 5743 5742 5742 5742 5742 5743 5744 5744 5745 5747 5748 5749 5751 5752 5755 5756 5758 5760 5762 5765
5775 5773 5772 5770 5769 5767 5766 5764 5762 5760 5757 5754 5752 5750 5747 5745 5743 5741 5740 5739 5738 5737 5736 5735 5735 5734 5734 5734 5735 5735 5736 5737 5738 5739 5740 5742 5743 5745 5747 5749 5751 5753 5756
5772 5770 5768 5766 5765 5763 5762 5760 5758 5755 5752 5749 5746 5744 5741 5739 5736 5735 5733 5731 5731 5730 5729 5728 5727 5726 5726 5726 5726 5727 5727 5728 5729 5730 5731 5733 5734 5736 5738 5739 5741 5744 5746
5769 5767 5765 5763 5761 5759 5757 5755 5752 5749 5747 5744 5741 5738 5735 5732 5730 5728 5725 5724 5722 5722 5721 5720 5719 5719 5718 5718 5718 5718 5719 5719 5720 5721 5722 5723 5725 5726 5728 5729 5732 5734 5736
5765 5763 5761 5759 5756 5754 5752 5749 5747 5744 5741 5738 5735 5732 5729 5726 5724 5721 5719 5717 5715 5714 5713 5713 5712 5711 5711 5710 5710 5710 5710 5711 5711 5712 5713 5714 5715 5716 5718 5720 5722 5724 5726
5762 5759 5757 5755 5752 5749 5747 5744 5742 5739 5736 5733 5729 5727 5724 5721 5718 5715 5712 5710 5708 5707 5706 5705 5704 5703 5702 5702 5702 5702 5702 5702 5702 5703 5704 5705 5706 5707 5709 5711 5713 5714 5716
5758 5755 5753 5750 5747 5745 5742 5739 5736 5734 5730 5727 5724 5721 5718 5715 5712 5709 5706 5703 5701 5700 5698 5697 5696 5695 5694 5693 5693 5693 5693 5693 5693 5694 5694 5695 5696 5698 5699 5701 5703 5704 5706
5753 5751 5749 5746 5743 5740 5737 5734 5731 5728 5725 5722 5719 5716 5712 5709 5706 5703 5700 5697 5695 5693 5691 5689 5688 5687 5686 5685 5685 5685 5685 5685 5685 5685 5685 5686 5687 5688 5690 5691 5693 5694 5695
5749 5747 5744 5741 5738 5735 5733 5729 5726 5723 5720 5717 5713 5710 5707 5704 5701 5698 5695 5692 5688 5686 5684 5682 5681 5680 5679 5678 5678 5677 5677 5677 5677 5676 5676 5677 5678 5679 5680 5681 5682 5683 5684
5745 5742 5739 5737 5734 5731 5727 5724 5721 5718 5714 5711 5708 5705 5702 5698 5695 5692 5689 5686 5683 5680 5678 5676 5675 5674 5673 5672 5671 5671 5670 5670 5670 5670 5668 5668 5669 5670 5670 5671 5672 5673 5674
5741 5738 5735 5732 5729 5726 5723 5719 5716 5712 5709 5706 5702 5699 5696 5693 5690 5687 5684 5681 5677 5675 5673 5671 5669 5668 5667 5667 5666 5665 5664 5663 5663 5662 5661 5661 5661 5662 5662 5662 5662 5663 5664
5736 5734 5730 5727 5724 5721 5718 5715 5711 5708 5704 5701 5698 5694 5691 5688 5684 5681 5679 5675 5672 5670 5668 5666 5664 5663 5662 5661 5660 5659 5658 5657 5656 5655 5654 5654 5654 5654 5654 5653 5653 5654 5654
5732 5729 5726 5723 5720 5717 5714 5710 5707 5703 5700 5697 5693 5690 5686 5683 5680 5677 5674 5671 5668 5665 5663 5661 5659 5657 5656 5655 5654 5652 5651 5650 5649 5648 5647 5646 5646 5646 5646 5645 5644 5644 5644
5728 5725 5722 5718 5715 5712 5709 5706 5702 5699 5696 5692 5689 5685 5682 5679 5676 5673 5670 5667 5664 5662 5659 5656 5654 5652 5651 5649 5647 5646 5644 5643 5642 5642 5640 5639 5638 5637 5637 5637 5636 5635 5634